Hourly Data Report for April 15, 2020

NANAIMO A
BRITISH COLUMBIA
Current Station Operator: NAVCAN

49°03'16.000" N
123°52'12.000" W
28.00 m
1025365
YCD

Download Data

Hourly Data (April 2020)
Hourly Data Report for April 15, 2020
TIME
LST
Temp Definition
°C
Dew Point Definition
°C
Rel Hum Definition
%
Precip. Amount Definition
mm

Wind Dir Definition
10's deg

Wind Spd Definition
km/h
Visibility Definition
km
Stn Press Definition
kPa
Hmdx Definition


Wind Chill Definition


Weather Definition


00:00 6.7 4.7 87 LegendMM 26 5 LegendMM 102.09     LegendNANA
01:00 6.0 4.6 91 LegendMM 32 4 LegendMM 102.12     LegendNANA
02:00 4.5 3.5 93 LegendMM 35 2 LegendMM 102.14     LegendNANA
03:00 4.3 3.5 95 LegendMM 31 1 LegendMM 102.18     LegendNANA
04:00 4.6 4.0 96 LegendMM 31 3 LegendMM 102.18     LegendNANA
05:00 2.6 2.4 98 LegendMM 3 4 LegendMM 102.18     LegendNANA
06:00 3.7 3.1 96 LegendMM 26 4 LegendMM 102.26     LegendNANA
07:00 8.1 6.6 90 LegendMM 19 3 LegendMM 102.36     LegendNANA
08:00 12.4 7.9 74 LegendMM 4 5 LegendMM 102.36     LegendNANA
09:00 14.0 8.6 70 LegendMM 2 13 LegendMM 102.35     LegendNANA
10:00 14.8 8.6 66 LegendMM 4 10 LegendMM 102.32     LegendNANA
11:00 16.2 8.5 60 LegendMM 2 12 LegendMM 102.32     LegendNANA
12:00 17.6 8.7 55 LegendMM 3 8 LegendMM 102.25     LegendNANA
13:00 18.2 6.6 46 LegendMM 7 7 LegendMM 102.20     LegendNANA
14:00 20.0 2.3 30 LegendMM 3 11 LegendMM 102.15     LegendNANA
15:00 19.5 -1.6 24 LegendMM 10 9 LegendMM 102.10     LegendNANA
16:00 20.6 -0.3 24 LegendMM 2 10 LegendMM 102.04     LegendNANA
17:00 19.9 -0.6 25 LegendMM 1 20 LegendMM 102.01     LegendNANA
18:00 19.7 -3.3 21 LegendMM 34 11 LegendMM 102.00     LegendNANA
19:00 15.4 4.8 49 LegendMM 18 8 LegendMM 102.00     LegendNANA
20:00 12.5 1.2 46 LegendMM 21 3 LegendMM 102.03     LegendNANA
21:00 10.6 0.7 50 LegendMM 27 5 LegendMM 102.07     LegendNANA
22:00 7.9 0.6 60 LegendMM 21 6 LegendMM 102.10     LegendNANA
23:00 7.8 0.1 58 LegendMM 19 3 LegendMM 102.16     LegendNANA

Notes on Data Quality.

Legend

  • E = Estimated
  • M = Missing
  • NA = Not Available*
  • [empty] = Indicates an unobserved value
Date modified: